Wetterdaten: Woche 01.01.18 - 07.01.18 (KW1)
Datum Zeit Temp. A. Pool Temp. Feuchte A. Luftdruck Regen Wind Richtung Sonnenschein ET UV Solar Taupunkt Windchill Windben Empfang
01.01.2018 00:00 2,4 C 3,9 C 93 % 1007,4 hPa 0,0 l/m 2,7 km/h (1 Bft) NW 0,00 h 0,000 mm 0,0 UV-I 0 W/m 1,4 C 2,4 C 4,2 km/h (1 Bft) 94,18 %
01.01.2018 01:00 1,8 C 3,9 C 94 % 1007,6 hPa 0,0 l/m 3,8 km/h (1 Bft) S-SO 0,00 h 0,000 mm 0,0 UV-I 0 W/m 0,9 C 1,7 C 6,3 km/h (2 Bft) 96,38 %
01.01.2018 02:00 1,7 C 3,9 C 95 % 1007,6 hPa 0,0 l/m 3,0 km/h (1 Bft) SW 0,00 h 0,000 mm 0,0 UV-I 0 W/m 0,9 C 1,7 C 4,7 km/h (1 Bft) 97,61 %
01.01.2018 03:00 1,9 C 3,9 C 94 % 1007,9 hPa 0,0 l/m 6,0 km/h (2 Bft) SW 0,00 h 0,000 mm 0,0 UV-I 0 W/m 1,1 C 1,5 C 8,4 km/h (2 Bft) 96,45 %
01.01.2018 04:00 2,2 C 3,9 C 93 % 1007,9 hPa 0,0 l/m 5,0 km/h (1 Bft) SW 0,00 h 0,000 mm 0,0 UV-I 0 W/m 1,2 C 2,2 C 7,2 km/h (2 Bft) 97,90 %
01.01.2018 05:00 3,0 C 3,9 C 91 % 1007,9 hPa 0,0 l/m 3,4 km/h (1 Bft) SW 0,00 h 0,000 mm 0,0 UV-I 0 W/m 1,7 C 3,0 C 4,8 km/h (1 Bft) 96,95 %
01.01.2018 06:00 3,1 C 3,9 C 92 % 1008,9 hPa 0,0 l/m 2,3 km/h (1 Bft) W-SW 0,00 h 0,000 mm 0,0 UV-I 0 W/m 1,9 C 3,1 C 3,4 km/h (1 Bft) 96,38 %
01.01.2018 07:00 5,1 C 3,9 C 88 % 1010,2 hPa 0,2 l/m 5,8 km/h (2 Bft) S-SW 0,00 h 0,000 mm 0,0 UV-I 0 W/m 3,3 C 4,7 C 8,5 km/h (2 Bft) 97,82 %
01.01.2018 08:00 6,2 C 3,9 C 88 % 1011,5 hPa 0,4 l/m 15,6 km/h (3 Bft) SW 0,00 h 0,000 mm 0,0 UV-I 14 W/m 4,3 C 0,5 C 22,2 km/h (4 Bft) 95,65 %
01.01.2018 09:00 6,4 C 3,9 C 83 % 1012,5 hPa 0,0 l/m 15,8 km/h (3 Bft) SW 0,00 h 0,025 mm 0,0 UV-I 49 W/m 3,7 C 0,5 C 23,3 km/h (4 Bft) 98,26 %
01.01.2018 10:00 6,8 C 3,9 C 81 % 1012,7 hPa 0,0 l/m 12,7 km/h (3 Bft) SW 0,08 h 0,051 mm 0,0 UV-I 117 W/m 3,8 C 2,5 C 18,1 km/h (3 Bft) 96,67 %
01.01.2018 11:00 7,5 C 3,9 C 78 % 1012,3 hPa 0,0 l/m 10,9 km/h (2 Bft) SW 0,00 h 0,076 mm 0,0 UV-I 144 W/m 3,8 C 4,3 C 16,1 km/h (3 Bft) 97,17 %
01.01.2018 12:00 8,0 C 3,9 C 71 % 1011,5 hPa 0,0 l/m 15,0 km/h (3 Bft) W-SW 0,00 h 0,076 mm 0,0 UV-I 135 W/m 3,0 C 2,9 C 21,0 km/h (4 Bft) 97,17 %
01.01.2018 13:00 8,0 C 3,9 C 69 % 1010,9 hPa 0,0 l/m 15,3 km/h (3 Bft) SW 0,08 h 0,102 mm 0,0 UV-I 121 W/m 2,6 C 2,8 C 21,5 km/h (4 Bft) 98,48 %
01.01.2018 14:00 7,8 C 3,9 C 68 % 1010,1 hPa 0,0 l/m 11,4 km/h (2 Bft) W-SW 0,10 h 0,102 mm 0,0 UV-I 80 W/m 2,2 C 4,5 C 16,6 km/h (3 Bft) 95,72 %
01.01.2018 15:00 6,9 C 3,9 C 73 % 1009,1 hPa 0,0 l/m 8,0 km/h (2 Bft) SW 0,00 h 0,076 mm 0,0 UV-I 24 W/m 2,3 C 5,6 C 11,5 km/h (2 Bft) 97,32 %
01.01.2018 16:00 5,5 C 3,9 C 78 % 1008,7 hPa 0,0 l/m 3,1 km/h (1 Bft) W-SW 0,02 h 0,025 mm 0,0 UV-I 7 W/m 1,9 C 5,4 C 4,6 km/h (1 Bft) 96,96 %
01.01.2018 17:00 3,9 C 3,9 C 84 % 1008,0 hPa 0,0 l/m 1,7 km/h (1 Bft) W-SW 0,00 h 0,000 mm 0,0 UV-I 0 W/m 1,4 C 3,9 C 2,5 km/h (1 Bft) 96,96 %
01.01.2018 18:00 2,8 C 3,9 C 87 % 1007,5 hPa 0,0 l/m 2,3 km/h (1 Bft) O-SO 0,00 h 0,000 mm 0,0 UV-I 0 W/m 0,9 C 2,8 C 3,4 km/h (1 Bft) 97,75 %
01.01.2018 19:00 2,7 C 3,9 C 87 % 1007,0 hPa 0,0 l/m 4,9 km/h (1 Bft) O-SO 0,00 h 0,000 mm 0,0 UV-I 0 W/m 0,7 C 2,0 C 7,8 km/h (2 Bft) 94,71 %
01.01.2018 20:00 2,5 C 3,9 C 86 % 1006,4 hPa 0,0 l/m 4,1 km/h (1 Bft) SO 0,00 h 0,000 mm 0,0 UV-I 0 W/m 0,4 C 2,2 C 6,6 km/h (2 Bft) 97,75 %
01.01.2018 21:00 1,3 C 3,9 C 89 % 1005,9 hPa 0,0 l/m 4,0 km/h (1 Bft) O 0,00 h 0,000 mm 0,0 UV-I 0 W/m -0,3 C 0,7 C 5,9 km/h (2 Bft) 95,51 %
01.01.2018 22:00 0,9 C 3,9 C 92 % 1005,5 hPa 0,0 l/m 5,0 km/h (1 Bft) SO 0,00 h 0,000 mm 0,0 UV-I 0 W/m -0,2 C -0,0 C 7,0 km/h (2 Bft) 97,97 %
01.01.2018 23:00 1,1 C 3,9 C 92 % 1006,0 hPa 0,0 l/m 3,0 km/h (1 Bft) O-NO 0,00 h 0,000 mm 0,0 UV-I 0 W/m -0,1 C 1,0 C 4,5 km/h (1 Bft) 97,10 %
02.01.2018 00:00 1,1 C 3,9 C 93 % 1006,7 hPa 0,0 l/m 6,5 km/h (2 Bft) SW 0,00 h 0,000 mm 0,0 UV-I 0 W/m 0,0 C -0,6 C 9,1 km/h (2 Bft) 96,96 %
02.01.2018 01:00 1,3 C 3,9 C 92 % 1006,5 hPa 0,0 l/m 3,9 km/h (1 Bft) S-SO 0,00 h 0,000 mm 0,0 UV-I 0 W/m 0,2 C 0,9 C 6,5 km/h (2 Bft) 97,97 %
02.01.2018 02:00 1,2 C 3,9 C 93 % 1006,8 hPa 0,0 l/m 2,2 km/h (1 Bft) W 0,00 h 0,000 mm 0,0 UV-I 0 W/m 0,2 C 1,2 C 4,1 km/h (1 Bft) 97,03 %
02.01.2018 03:00 2,9 C 3,9 C 87 % 1007,2 hPa 0,0 l/m 7,9 km/h (2 Bft) S-SW 0,00 h 0,000 mm 0,0 UV-I 0 W/m 1,0 C 1,4 C 11,3 km/h (2 Bft) 97,68 %
02.01.2018 04:00 4,9 C 3,9 C 83 % 1007,2 hPa 0,2 l/m 16,6 km/h (3 Bft) SW 0,00 h 0,000 mm 0,0 UV-I 0 W/m 2,2 C -1,5 C 24,8 km/h (4 Bft) 96,88 %
02.01.2018 05:00 5,7 C 3,9 C 76 % 1007,9 hPa 0,0 l/m 21,5 km/h (4 Bft) W-SW 0,00 h 0,025 mm 0,0 UV-I 0 W/m 1,8 C -2,8 C 30,9 km/h (5 Bft) 98,26 %
02.01.2018 06:00 5,9 C 3,9 C 74 % 1009,0 hPa 0,0 l/m 22,4 km/h (4 Bft) SW 0,00 h 0,051 mm 0,0 UV-I 0 W/m 1,7 C -2,7 C 31,6 km/h (5 Bft) 96,23 %
02.01.2018 07:00 5,9 C 3,9 C 71 % 1009,9 hPa 0,0 l/m 21,0 km/h (4 Bft) W-SW 0,00 h 0,051 mm 0,0 UV-I 6 W/m 1,1 C -2,3 C 29,2 km/h (5 Bft) 98,48 %
02.01.2018 08:00 5,7 C 3,9 C 72 % 1010,4 hPa 0,0 l/m 23,4 km/h (4 Bft) SW 0,03 h 0,051 mm 0,0 UV-I 26 W/m 1,0 C -3,4 C 33,2 km/h (5 Bft) 96,59 %
02.01.2018 09:00 5,6 C 3,9 C 73 % 1011,3 hPa 0,0 l/m 22,6 km/h (4 Bft) W-SW 0,00 h 0,076 mm 0,0 UV-I 75 W/m 1,2 C -3,2 C 32,0 km/h (5 Bft) 97,39 %
02.01.2018 10:00 5,8 C 3,9 C 74 % 1012,1 hPa 0,0 l/m 19,9 km/h (4 Bft) W-SW 0,03 h 0,076 mm 0,0 UV-I 110 W/m 1,5 C -2,0 C 27,8 km/h (4 Bft) 95,94 %
02.01.2018 11:00 6,2 C 3,9 C 73 % 1012,0 hPa 0,0 l/m 23,7 km/h (4 Bft) W-SW 0,58 h 0,102 mm 0,5 UV-I 216 W/m 1,8 C -2,7 C 34,4 km/h (5 Bft) 98,55 %
02.01.2018 12:00 5,5 C 3,9 C 81 % 1012,7 hPa 0,0 l/m 22,3 km/h (4 Bft) W-SW 0,57 h 0,152 mm 0,5 UV-I 209 W/m 2,4 C -3,3 C 32,3 km/h (5 Bft) 96,59 %
02.01.2018 13:00 5,7 C 3,9 C 79 % 1012,9 hPa 0,0 l/m 17,4 km/h (3 Bft) W-SW 0,00 h 0,127 mm 0,0 UV-I 58 W/m 2,3 C -1,0 C 24,6 km/h (4 Bft) 97,17 %
02.01.2018 14:00 4,2 C 3,9 C 89 % 1013,4 hPa 0,8 l/m 18,3 km/h (3 Bft) W-SW 0,00 h 0,051 mm 0,0 UV-I 48 W/m 2,6 C -3,3 C 25,6 km/h (4 Bft) 96,45 %
02.01.2018 15:00 3,7 C 3,9 C 90 % 1014,1 hPa 0,2 l/m 16,2 km/h (3 Bft) W-SW 0,00 h 0,025 mm 0,0 UV-I 13 W/m 2,3 C -3,0 C 22,1 km/h (4 Bft) 98,11 %
02.01.2018 16:00 3,3 C 3,9 C 92 % 1014,9 hPa 0,0 l/m 15,7 km/h (3 Bft) SW 0,00 h 0,025 mm 0,0 UV-I 5 W/m 2,1 C -3,3 C 21,8 km/h (4 Bft) 96,23 %
02.01.2018 17:00 3,2 C 3,9 C 92 % 1015,6 hPa 0,0 l/m 12,5 km/h (3 Bft) SW 0,00 h 0,000 mm 0,0 UV-I 0 W/m 2,0 C -1,5 C 17,9 km/h (3 Bft) 97,46 %
02.01.2018 18:00 3,5 C 3,9 C 90 % 1015,9 hPa 0,0 l/m 15,4 km/h (3 Bft) SW 0,00 h 0,000 mm 0,0 UV-I 0 W/m 2,1 C -2,8 C 21,5 km/h (4 Bft) 96,81 %
02.01.2018 19:00 3,7 C 3,9 C 88 % 1016,0 hPa 0,0 l/m 17,9 km/h (3 Bft) SW 0,00 h 0,025 mm 0,0 UV-I 0 W/m 1,9 C -3,9 C 24,9 km/h (4 Bft) 97,90 %
02.01.2018 20:00 3,4 C 3,9 C 88 % 1016,7 hPa 0,4 l/m 16,0 km/h (3 Bft) W-SW 0,00 h 0,025 mm 0,0 UV-I 0 W/m 1,6 C -3,3 C 22,2 km/h (4 Bft) 96,96 %
02.01.2018 21:00 2,7 C 3,9 C 93 % 1016,6 hPa 0,8 l/m 9,4 km/h (2 Bft) S-SW 0,00 h 0,025 mm 0,0 UV-I 0 W/m 1,6 C 0,2 C 13,7 km/h (3 Bft) 97,10 %
02.01.2018 22:00 3,1 C 3,9 C 89 % 1016,0 hPa 0,0 l/m 10,6 km/h (2 Bft) S-SW 0,00 h 0,000 mm 0,0 UV-I 0 W/m 1,5 C -0,4 C 15,5 km/h (3 Bft) 98,40 %
02.01.2018 23:00 3,0 C 3,9 C 85 % 1015,2 hPa 0,0 l/m 9,6 km/h (2 Bft) S-SW 0,00 h 0,000 mm 0,0 UV-I 0 W/m 0,8 C 0,2 C 13,5 km/h (3 Bft) 96,52 %
03.01.2018 00:00 2,6 C 3,9 C 85 % 1013,9 hPa 0,0 l/m 2,9 km/h (1 Bft) S-SW 0,00 h 0,025 mm 0,0 UV-I 0 W/m 0,4 C 2,5 C 4,5 km/h (1 Bft) 97,75 %
03.01.2018 01:00 0,7 C 3,9 C 92 % 1012,8 hPa 0,0 l/m 1,9 km/h (1 Bft) S-SW 0,00 h 0,000 mm 0,0 UV-I 0 W/m -0,5 C 0,7 C 2,9 km/h (1 Bft) 96,88 %
03.01.2018 02:00 -0,0 C 3,9 C 94 % 1011,7 hPa 0,0 l/m 2,9 km/h (1 Bft) O 0,00 h 0,000 mm 0,0 UV-I 0 W/m -0,8 C -0,0 C 3,7 km/h (1 Bft) 97,61 %
03.01.2018 03:00 -0,1 C 3,9 C 95 % 1010,1 hPa 0,0 l/m 1,6 km/h (1 Bft) O 0,00 h 0,000 mm 0,0 UV-I 0 W/m -0,9 C -0,1 C 2,7 km/h (1 Bft) 96,59 %
03.01.2018 04:00 -0,2 C 3,9 C 95 % 1008,8 hPa 0,0 l/m 0,6 km/h (0 Bft) O 0,00 h 0,000 mm 0,0 UV-I 0 W/m -1,0 C -0,2 C 1,0 km/h (0 Bft) 97,90 %
03.01.2018 05:00 0,1 C 3,9 C 95 % 1007,7 hPa 0,0 l/m 1,9 km/h (1 Bft) SO 0,00 h 0,000 mm 0,0 UV-I 0 W/m -0,6 C 0,1 C 3,2 km/h (1 Bft) 97,10 %
03.01.2018 06:00 0,5 C 3,9 C 95 % 1005,9 hPa 0,0 l/m 7,4 km/h (2 Bft) O 0,00 h 0,000 mm 0,0 UV-I 0 W/m -0,2 C -1,3 C 10,3 km/h (2 Bft) 96,59 %
03.01.2018 07:00 0,4 C 3,9 C 95 % 1003,1 hPa 0,0 l/m 10,6 km/h (2 Bft) O-NO 0,00 h 0,000 mm 0,0 UV-I 5 W/m -0,2 C -3,3 C 14,3 km/h (3 Bft) 97,53 %
03.01.2018 08:00 0,6 C 3,9 C 96 % 1000,0 hPa 0,0 l/m 9,9 km/h (2 Bft) O-NO 0,00 h 0,000 mm 0,0 UV-I 17 W/m -0,0 C -2,8 C 13,9 km/h (3 Bft) 97,39 %
03.01.2018 09:00 0,8 C 3,9 C 96 % 997,2 hPa 2,0 l/m 8,7 km/h (2 Bft) NO 0,00 h 0,000 mm 0,0 UV-I 34 W/m 0,1 C -1,8 C 12,6 km/h (3 Bft) 97,32 %
03.01.2018 10:00 1,5 C 3,9 C 96 % 995,7 hPa 0,0 l/m 6,6 km/h (2 Bft) O-NO 0,08 h 0,025 mm 0,0 UV-I 87 W/m 0,9 C 0,3 C 9,5 km/h (2 Bft) 95,65 %
03.01.2018 11:00 2,1 C 3,9 C 96 % 994,3 hPa 2,0 l/m 6,4 km/h (2 Bft) NO 0,00 h 0,025 mm 0,0 UV-I 38 W/m 1,4 C 0,8 C 9,6 km/h (2 Bft) 98,04 %
03.01.2018 12:00 4,1 C 3,9 C 96 % 997,2 hPa 4,0 l/m 16,9 km/h (3 Bft) SW 0,00 h 0,025 mm 0,0 UV-I 12 W/m 3,6 C -2,2 C 25,2 km/h (4 Bft) 96,52 %
03.01.2018 13:00 5,5 C 3,9 C 93 % 999,1 hPa 3,0 l/m 13,3 km/h (3 Bft) W 0,00 h 0,000 mm 0,0 UV-I 21 W/m 4,5 C 1,0 C 19,2 km/h (3 Bft) 97,39 %
03.01.2018 14:00 5,1 C 3,9 C 93 % 1001,3 hPa 2,4 l/m 22,0 km/h (4 Bft) SW 0,00 h 0,025 mm 0,0 UV-I 20 W/m 4,1 C -3,6 C 31,7 km/h (5 Bft) 94,64 %
03.01.2018 15:00 5,0 C 3,9 C 88 % 1002,3 hPa 0,2 l/m 30,8 km/h (5 Bft) SW 0,00 h 0,025 mm 0,0 UV-I 23 W/m 3,2 C -6,4 C 43,6 km/h (6 Bft) 98,11 %
03.01.2018 16:00 5,3 C 3,9 C 84 % 1003,8 hPa 0,0 l/m 29,2 km/h (5 Bft) SW 0,02 h 0,051 mm 0,0 UV-I 7 W/m 2,8 C -5,6 C 40,7 km/h (6 Bft) 95,80 %
03.01.2018 17:00 5,6 C 3,9 C 80 % 1003,9 hPa 0,0 l/m 26,7 km/h (4 Bft) W-SW 0,00 h 0,051 mm 0,0 UV-I 0 W/m 2,3 C -4,6 C 39,1 km/h (6 Bft) 97,75 %
03.01.2018 18:00 5,9 C 3,9 C 76 % 1003,6 hPa 0,0 l/m 27,1 km/h (4 Bft) SW 0,00 h 0,051 mm 0,0 UV-I 0 W/m 2,0 C -4,3 C 38,8 km/h (5 Bft) 97,54 %
03.01.2018 19:00 6,1 C 3,9 C 73 % 1003,4 hPa 0,0 l/m 26,4 km/h (4 Bft) SW 0,00 h 0,051 mm 0,0 UV-I 0 W/m 1,7 C -3,7 C 37,8 km/h (5 Bft) 97,53 %
03.01.2018 20:00 6,3 C 3,9 C 71 % 1003,7 hPa 0,0 l/m 25,6 km/h (4 Bft) SW 0,00 h 0,076 mm 0,0 UV-I 0 W/m 1,4 C -3,2 C 37,4 km/h (5 Bft) 96,67 %
03.01.2018 21:00 6,6 C 3,9 C 69 % 1003,6 hPa 0,0 l/m 25,8 km/h (4 Bft) SW 0,00 h 0,076 mm 0,0 UV-I 0 W/m 1,3 C -2,8 C 37,7 km/h (5 Bft) 97,90 %
03.01.2018 22:00 6,8 C 3,9 C 67 % 1003,5 hPa 0,0 l/m 32,1 km/h (5 Bft) W-SW 0,00 h 0,076 mm 0,0 UV-I 0 W/m 1,2 C -4,2 C 47,2 km/h (6 Bft) 97,24 %
03.01.2018 23:00 6,8 C 3,9 C 67 % 1004,2 hPa 0,0 l/m 32,5 km/h (5 Bft) W-SW 0,00 h 0,102 mm 0,0 UV-I 0 W/m 1,2 C -4,3 C 46,6 km/h (6 Bft) 96,52 %
04.01.2018 00:00 6,7 C 3,9 C 68 % 1004,2 hPa 0,0 l/m 31,8 km/h (5 Bft) SW 0,00 h 0,102 mm 0,0 UV-I 0 W/m 1,2 C -4,3 C 45,8 km/h (6 Bft) 97,61 %
04.01.2018 01:00 6,5 C 3,9 C 71 % 1004,7 hPa 0,0 l/m 27,0 km/h (4 Bft) W-SW 0,00 h 0,102 mm 0,0 UV-I 0 W/m 1,6 C -3,3 C 38,2 km/h (5 Bft) 96,81 %
04.01.2018 02:00 6,6 C 3,9 C 69 % 1005,1 hPa 0,0 l/m 22,2 km/h (4 Bft) SW 0,00 h 0,076 mm 0,0 UV-I 0 W/m 1,4 C -1,8 C 31,6 km/h (5 Bft) 97,68 %
04.01.2018 03:00 6,3 C 3,9 C 71 % 1004,9 hPa 0,0 l/m 16,3 km/h (3 Bft) SW 0,00 h 0,076 mm 0,0 UV-I 0 W/m 1,4 C 0,2 C 23,6 km/h (4 Bft) 96,01 %
04.01.2018 04:00 6,2 C 3,9 C 72 % 1004,6 hPa 0,0 l/m 17,1 km/h (3 Bft) SW 0,00 h 0,051 mm 0,0 UV-I 0 W/m 1,6 C -0,3 C 25,2 km/h (4 Bft) 98,48 %
04.01.2018 05:00 6,2 C 3,9 C 73 % 1004,6 hPa 0,0 l/m 17,4 km/h (3 Bft) SW 0,00 h 0,051 mm 0,0 UV-I 0 W/m 1,6 C -0,5 C 24,9 km/h (4 Bft) 96,01 %
04.01.2018 06:00 5,9 C 3,9 C 74 % 1004,8 hPa 0,0 l/m 15,2 km/h (3 Bft) SW 0,00 h 0,051 mm 0,0 UV-I 0 W/m 1,6 C 0,2 C 21,7 km/h (4 Bft) 97,68 %
04.01.2018 07:00 5,9 C 3,9 C 75 % 1004,8 hPa 0,0 l/m 14,5 km/h (3 Bft) SW 0,00 h 0,051 mm 0,0 UV-I 10 W/m 1,7 C 0,5 C 20,5 km/h (4 Bft) 96,59 %
04.01.2018 08:00 5,8 C 3,9 C 75 % 1004,5 hPa 0,0 l/m 17,3 km/h (3 Bft) SW 0,23 h 0,025 mm 0,0 UV-I 31 W/m 1,8 C -0,9 C 24,4 km/h (4 Bft) 97,97 %
04.01.2018 09:00 6,3 C 3,9 C 74 % 1004,7 hPa 0,0 l/m 14,9 km/h (3 Bft) SW 0,00 h 0,051 mm 0,0 UV-I 67 W/m 2,0 C 0,7 C 21,5 km/h (4 Bft) 95,94 %
04.01.2018 10:00 6,6 C 3,9 C 77 % 1005,2 hPa 0,0 l/m 14,0 km/h (3 Bft) SW 0,00 h 0,076 mm 0,0 UV-I 68 W/m 2,8 C 1,7 C 19,9 km/h (4 Bft) 98,04 %
04.01.2018 11:00 6,5 C 3,9 C 80 % 1004,6 hPa 0,0 l/m 10,7 km/h (2 Bft) S-SW 0,00 h 0,051 mm 0,0 UV-I 131 W/m 3,3 C 3,5 C 16,2 km/h (3 Bft) 96,95 %
04.01.2018 12:00 6,9 C 3,9 C 79 % 1003,8 hPa 0,0 l/m 10,5 km/h (2 Bft) S-SW 0,00 h 0,076 mm 0,0 UV-I 127 W/m 3,6 C 4,0 C 15,6 km/h (3 Bft) 96,88 %
04.01.2018 13:00 6,6 C 3,9 C 83 % 1002,8 hPa 0,0 l/m 10,2 km/h (2 Bft) S-SW 0,00 h 0,076 mm 0,0 UV-I 61 W/m 3,8 C 3,8 C 15,2 km/h (3 Bft) 96,16 %
04.01.2018 14:00 6,0 C 3,9 C 89 % 1002,1 hPa 0,2 l/m 6,0 km/h (2 Bft) S-SW 0,00 h 0,051 mm 0,0 UV-I 42 W/m 4,3 C 5,6 C 8,7 km/h (2 Bft) 98,33 %
04.01.2018 15:00 5,5 C 3,9 C 93 % 1002,0 hPa 1,4 l/m 4,0 km/h (1 Bft) SO 0,00 h 0,025 mm 0,0 UV-I 16 W/m 4,5 C 5,5 C 6,4 km/h (2 Bft) 97,03 %
04.01.2018 16:00 4,9 C 3,9 C 95 % 1001,5 hPa 1,0 l/m 4,7 km/h (1 Bft) S-SO 0,00 h 0,000 mm 0,0 UV-I 6 W/m 4,1 C 4,9 C 8,5 km/h (2 Bft) 97,39 %
04.01.2018 17:00 4,5 C 3,9 C 95 % 1001,2 hPa 1,2 l/m 3,2 km/h (1 Bft) S-SO 0,00 h 0,000 mm 0,0 UV-I 0 W/m 3,8 C 4,5 C 5,9 km/h (2 Bft) 96,01 %
04.01.2018 18:00 4,3 C 3,9 C 96 % 1000,6 hPa 2,6 l/m 2,3 km/h (1 Bft) SO 0,00 h 0,000 mm 0,0 UV-I 0 W/m 3,6 C 4,3 C 4,0 km/h (1 Bft) 97,97 %
04.01.2018 19:00 4,2 C 3,9 C 96 % 999,8 hPa 2,4 l/m 4,8 km/h (1 Bft) O-SO 0,00 h 0,000 mm 0,0 UV-I 0 W/m 3,7 C 3,6 C 7,3 km/h (2 Bft) 96,74 %
04.01.2018 20:00 4,3 C 3,9 C 97 % 999,7 hPa 3,2 l/m 4,0 km/h (1 Bft) O-NO 0,00 h 0,000 mm 0,0 UV-I 0 W/m 3,8 C 3,7 C 5,9 km/h (2 Bft) 97,46 %
04.01.2018 21:00 4,4 C 3,9 C 97 % 998,8 hPa 2,6 l/m 9,6 km/h (2 Bft) O-SO 0,00 h 0,000 mm 0,0 UV-I 0 W/m 4,0 C 1,6 C 14,0 km/h (3 Bft) 96,59 %
04.01.2018 22:00 4,6 C 3,9 C 97 % 998,9 hPa 2,4 l/m 4,2 km/h (1 Bft) S-SO 0,00 h 0,000 mm 0,0 UV-I 0 W/m 4,2 C 4,2 C 7,0 km/h (2 Bft) 98,04 %
04.01.2018 23:00 5,2 C 3,9 C 98 % 998,7 hPa 5,6 l/m 3,0 km/h (1 Bft) NO 0,00 h 0,000 mm 0,0 UV-I 0 W/m 4,9 C 5,1 C 5,1 km/h (1 Bft) 97,39 %
05.01.2018 00:00 7,3 C 3,9 C 98 % 998,1 hPa 0,8 l/m 11,7 km/h (2 Bft) W-SW 0,00 h 0,000 mm 0,0 UV-I 0 W/m 6,9 C 3,8 C 17,8 km/h (3 Bft) 97,03 %
05.01.2018 01:00 9,5 C 3,9 C 93 % 999,1 hPa 2,6 l/m 17,5 km/h (3 Bft) W-SW 0,00 h 0,000 mm 0,0 UV-I 0 W/m 8,5 C 4,5 C 27,0 km/h (4 Bft) 97,61 %
05.01.2018 02:00 8,9 C 3,9 C 94 % 1000,6 hPa 1,4 l/m 16,0 km/h (3 Bft) W-SW 0,00 h 0,025 mm 0,0 UV-I 0 W/m 8,1 C 4,2 C 23,5 km/h (4 Bft) 97,25 %
05.01.2018 03:00 9,1 C 3,9 C 84 % 1001,6 hPa 0,4 l/m 23,8 km/h (4 Bft) W-SW 0,00 h 0,000 mm 0,0 UV-I 0 W/m 6,6 C 1,1 C 34,0 km/h (5 Bft) 97,39 %
05.01.2018 04:00 8,6 C 3,9 C 82 % 1003,0 hPa 0,0 l/m 15,4 km/h (3 Bft) W-SW 0,00 h 0,051 mm 0,0 UV-I 0 W/m 5,8 C 3,6 C 21,5 km/h (4 Bft) 96,23 %
05.01.2018 05:00 7,8 C 3,9 C 84 % 1003,7 hPa 0,0 l/m 11,5 km/h (2 Bft) W 0,00 h 0,025 mm 0,0 UV-I 0 W/m 5,3 C 4,3 C 15,6 km/h (3 Bft) 98,33 %
05.01.2018 06:00 7,4 C 3,9 C 85 % 1004,4 hPa 0,0 l/m 10,5 km/h (2 Bft) W-SW 0,00 h 0,025 mm 0,0 UV-I 0 W/m 5,1 C 4,5 C 14,8 km/h (3 Bft) 95,80 %
05.01.2018 07:00 6,7 C 3,9 C 87 % 1004,8 hPa 0,0 l/m 4,3 km/h (1 Bft) W 0,00 h 0,025 mm 0,0 UV-I 6 W/m 4,7 C 6,3 C 6,3 km/h (2 Bft) 97,68 %
05.01.2018 08:00 5,8 C 3,9 C 93 % 1005,0 hPa 0,0 l/m 3,1 km/h (1 Bft) S 0,07 h 0,000 mm 0,0 UV-I 25 W/m 4,8 C 5,8 C 4,8 km/h (1 Bft) 97,03 %
05.01.2018 09:00 6,5 C 3,9 C 93 % 1005,0 hPa 0,0 l/m 1,6 km/h (1 Bft) SO 0,45 h 0,025 mm 0,0 UV-I 114 W/m 5,5 C 6,5 C 3,0 km/h (1 Bft) 95,36 %
05.01.2018 10:00 8,6 C 3,9 C 88 % 1004,8 hPa 0,0 l/m 4,1 km/h (1 Bft) O-NO 0,95 h 0,051 mm 0,5 UV-I 261 W/m 6,8 C 8,6 C 6,1 km/h (2 Bft) 95,80 %
05.01.2018 11:00 10,6 C 3,9 C 82 % 1004,3 hPa 0,0 l/m 5,2 km/h (1 Bft) O-SO 0,98 h 0,127 mm 0,6 UV-I 324 W/m 7,7 C 10,4 C 7,6 km/h (2 Bft) 98,33 %
05.01.2018 12:00 11,5 C 3,9 C 81 % 1003,7 hPa 0,0 l/m 4,6 km/h (1 Bft) O-SO 1,00 h 0,152 mm 0,6 UV-I 276 W/m 8,4 C 11,3 C 7,1 km/h (2 Bft) 96,30 %
05.01.2018 13:00 12,3 C 3,9 C 79 % 1003,5 hPa 0,0 l/m 5,9 km/h (2 Bft) O-NO 1,00 h 0,152 mm 0,5 UV-I 244 W/m 8,8 C 12,1 C 7,9 km/h (2 Bft) 97,82 %
05.01.2018 14:00 12,7 C 3,9 C 77 % 1003,1 hPa 0,0 l/m 5,5 km/h (1 Bft) O-NO 0,92 h 0,127 mm 0,0 UV-I 190 W/m 8,8 C 12,4 C 7,6 km/h (2 Bft) 97,10 %
05.01.2018 15:00 11,7 C 3,9 C 78 % 1003,1 hPa 0,0 l/m 4,5 km/h (1 Bft) O-NO 0,00 h 0,102 mm 0,0 UV-I 32 W/m 8,0 C 11,6 C 5,7 km/h (1 Bft) 97,39 %
05.01.2018 16:00 8,5 C 3,9 C 89 % 1003,4 hPa 0,0 l/m 2,7 km/h (1 Bft) O-SO 0,08 h 0,025 mm 0,0 UV-I 10 W/m 6,9 C 8,5 C 4,0 km/h (1 Bft) 97,17 %
05.01.2018 17:00 7,7 C 3,9 C 91 % 1003,4 hPa 0,0 l/m 3,9 km/h (1 Bft) SO 0,00 h 0,000 mm 0,0 UV-I 0 W/m 6,3 C 7,4 C 6,2 km/h (2 Bft) 97,24 %
05.01.2018 18:00 6,8 C 3,9 C 90 % 1003,3 hPa 0,0 l/m 1,8 km/h (1 Bft) S 0,00 h 0,000 mm 0,0 UV-I 0 W/m 5,3 C 6,8 C 3,1 km/h (1 Bft) 96,74 %
05.01.2018 19:00 5,4 C 3,9 C 93 % 1003,6 hPa 0,0 l/m 2,0 km/h (1 Bft) W-NW 0,00 h 0,000 mm 0,0 UV-I 0 W/m 4,3 C 5,4 C 3,3 km/h (1 Bft) 97,17 %
05.01.2018 20:00 5,1 C 3,9 C 93 % 1004,1 hPa 0,0 l/m 2,3 km/h (1 Bft) W-SW 0,00 h 0,000 mm 0,0 UV-I 0 W/m 4,1 C 5,1 C 3,6 km/h (1 Bft) 96,16 %
05.01.2018 21:00 5,6 C 3,9 C 93 % 1004,2 hPa 0,0 l/m 1,3 km/h (1 Bft) W-SW 0,00 h 0,000 mm 0,0 UV-I 0 W/m 4,6 C 5,6 C 2,4 km/h (1 Bft) 98,33 %
05.01.2018 22:00 5,1 C 3,9 C 94 % 1004,5 hPa 0,0 l/m 2,5 km/h (1 Bft) SW 0,00 h 0,000 mm 0,0 UV-I 0 W/m 4,2 C 5,1 C 3,7 km/h (1 Bft) 97,46 %
05.01.2018 23:00 5,3 C 3,9 C 94 % 1004,9 hPa 0,0 l/m 1,7 km/h (1 Bft) SO 0,00 h 0,000 mm 0,0 UV-I 0 W/m 4,5 C 5,3 C 2,9 km/h (1 Bft) 96,88 %
06.01.2018 00:00 5,5 C 3,9 C 94 % 1005,3 hPa 0,0 l/m 1,3 km/h (1 Bft) NW 0,00 h 0,000 mm 0,0 UV-I 0 W/m 4,6 C 5,5 C 2,5 km/h (1 Bft) 98,04 %
06.01.2018 01:00 6,0 C 3,9 C 91 % 1005,9 hPa 0,0 l/m 3,0 km/h (1 Bft) S-SW 0,00 h 0,000 mm 0,0 UV-I 0 W/m 4,6 C 6,0 C 4,9 km/h (1 Bft) 96,23 %
06.01.2018 02:00 6,4 C 3,9 C 90 % 1006,5 hPa 0,0 l/m 3,8 km/h (1 Bft) S-SW 0,00 h 0,000 mm 0,0 UV-I 0 W/m 4,9 C 6,4 C 5,4 km/h (1 Bft) 98,33 %
06.01.2018 03:00 7,1 C 3,9 C 89 % 1006,8 hPa 0,0 l/m 4,3 km/h (1 Bft) SW 0,00 h 0,000 mm 0,0 UV-I 0 W/m 5,4 C 7,1 C 6,1 km/h (2 Bft) 96,52 %
06.01.2018 04:00 7,3 C 3,9 C 89 % 1006,7 hPa 0,0 l/m 4,2 km/h (1 Bft) W-SW 0,00 h 0,000 mm 0,0 UV-I 0 W/m 5,6 C 7,3 C 6,2 km/h (2 Bft) 97,82 %
06.01.2018 05:00 7,2 C 3,9 C 90 % 1007,0 hPa 0,0 l/m 2,9 km/h (1 Bft) S 0,00 h 0,000 mm 0,0 UV-I 0 W/m 5,6 C 7,2 C 5,1 km/h (1 Bft) 96,45 %
06.01.2018 06:00 7,0 C 3,9 C 90 % 1007,4 hPa 0,0 l/m 1,1 km/h (1 Bft) S 0,00 h 0,000 mm 0,0 UV-I 0 W/m 5,5 C 7,0 C 2,3 km/h (1 Bft) 98,26 %
06.01.2018 07:00 5,8 C 3,9 C 94 % 1007,7 hPa 0,0 l/m 3,5 km/h (1 Bft) N-NO 0,00 h 0,000 mm 0,0 UV-I 7 W/m 4,9 C 5,7 C 4,6 km/h (1 Bft) 95,80 %
06.01.2018 08:00 5,1 C 3,9 C 95 % 1007,9 hPa 0,0 l/m 3,2 km/h (1 Bft) O-NO 0,77 h 0,000 mm 0,0 UV-I 57 W/m 4,4 C 5,1 C 4,5 km/h (1 Bft) 97,39 %
06.01.2018 09:00 5,9 C 3,9 C 93 % 1007,9 hPa 0,0 l/m 3,4 km/h (1 Bft) O-NO 1,00 h 0,025 mm 0,0 UV-I 178 W/m 4,8 C 5,8 C 5,1 km/h (1 Bft) 97,75 %
06.01.2018 10:00 6,8 C 3,9 C 89 % 1007,7 hPa 0,0 l/m 6,9 km/h (2 Bft) O-NO 1,00 h 0,076 mm 0,5 UV-I 262 W/m 5,2 C 6,3 C 9,3 km/h (2 Bft) 97,10 %
06.01.2018 11:00 8,1 C 3,9 C 86 % 1007,1 hPa 0,0 l/m 7,9 km/h (2 Bft) O-NO 1,00 h 0,127 mm 0,6 UV-I 320 W/m 5,9 C 6,9 C 11,1 km/h (2 Bft) 98,26 %
06.01.2018 12:00 9,4 C 3,9 C 85 % 1006,6 hPa 0,0 l/m 6,3 km/h (2 Bft) O-NO 1,00 h 0,152 mm 0,7 UV-I 321 W/m 7,0 C 9,1 C 8,9 km/h (2 Bft) 96,88 %
06.01.2018 13:00 9,6 C 3,9 C 84 % 1006,3 hPa 0,0 l/m 6,7 km/h (2 Bft) O-NO 1,00 h 0,152 mm 0,5 UV-I 253 W/m 7,0 C 8,8 C 9,3 km/h (2 Bft) 96,30 %
06.01.2018 14:00 9,7 C 4,0 C 84 % 1006,6 hPa 0,0 l/m 4,8 km/h (1 Bft) O-NO 0,58 h 0,127 mm 0,0 UV-I 151 W/m 7,1 C 9,7 C 6,6 km/h (2 Bft) 97,68 %
06.01.2018 15:00 9,6 C 4,3 C 84 % 1007,0 hPa 0,0 l/m 4,9 km/h (1 Bft) O-NO 1,00 h 0,076 mm 0,0 UV-I 106 W/m 7,1 C 9,5 C 6,7 km/h (2 Bft) 95,80 %
06.01.2018 16:00 8,2 C 4,4 C 87 % 1007,4 hPa 0,0 l/m 4,7 km/h (1 Bft) O-NO 0,23 h 0,051 mm 0,0 UV-I 14 W/m 6,2 C 8,1 C 6,5 km/h (2 Bft) 98,11 %
06.01.2018 17:00 7,1 C 4,4 C 88 % 1008,0 hPa 0,0 l/m 8,4 km/h (2 Bft) O-NO 0,00 h 0,000 mm 0,0 UV-I 0 W/m 5,2 C 5,5 C 11,8 km/h (2 Bft) 97,53 %
06.01.2018 18:00 5,9 C 4,4 C 90 % 1008,7 hPa 0,0 l/m 8,0 km/h (2 Bft) O-NO 0,00 h 0,000 mm 0,0 UV-I 0 W/m 4,3 C 4,2 C 11,7 km/h (2 Bft) 96,81 %
06.01.2018 19:00 4,3 C 4,4 C 94 % 1009,7 hPa 0,0 l/m 12,9 km/h (3 Bft) O-NO 0,00 h 0,000 mm 0,0 UV-I 0 W/m 3,5 C -0,4 C 17,2 km/h (3 Bft) 98,19 %
06.01.2018 20:00 4,3 C 4,4 C 97 % 1010,4 hPa 0,0 l/m 12,6 km/h (3 Bft) O-NO 0,00 h 0,000 mm 0,0 UV-I 0 W/m 3,8 C -0,4 C 16,8 km/h (3 Bft) 97,17 %
06.01.2018 21:00 4,3 C 4,4 C 97 % 1011,1 hPa 0,0 l/m 12,3 km/h (3 Bft) O-NO 0,00 h 0,000 mm 0,0 UV-I 0 W/m 3,8 C -0,1 C 16,2 km/h (3 Bft) 97,75 %
06.01.2018 22:00 4,2 C 4,4 C 98 % 1011,6 hPa 0,0 l/m 11,5 km/h (2 Bft) O-NO 0,00 h 0,000 mm 0,0 UV-I 0 W/m 3,9 C 0,3 C 15,5 km/h (3 Bft) 96,59 %
06.01.2018 23:00 4,1 C 4,4 C 98 % 1012,2 hPa 0,0 l/m 9,4 km/h (2 Bft) O-NO 0,00 h 0,000 mm 0,0 UV-I 0 W/m 3,8 C 1,7 C 13,1 km/h (3 Bft) 97,82 %
07.01.2018 00:00 4,0 C 4,4 C 98 % 1012,5 hPa 0,0 l/m 7,8 km/h (2 Bft) O-NO 0,00 h 0,000 mm 0,0 UV-I 0 W/m 3,7 C 2,6 C 11,0 km/h (2 Bft) 96,52 %
07.01.2018 01:00 3,9 C 4,4 C 98 % 1013,1 hPa 0,0 l/m 5,5 km/h (1 Bft) O-NO 0,00 h 0,000 mm 0,0 UV-I 0 W/m 3,6 C 3,7 C 7,5 km/h (2 Bft) 97,68 %
07.01.2018 02:00 3,8 C 4,4 C 98 % 1013,7 hPa 0,0 l/m 5,8 km/h (2 Bft) O-NO 0,00 h 0,000 mm 0,0 UV-I 0 W/m 3,5 C 3,4 C 8,4 km/h (2 Bft) 95,87 %
07.01.2018 03:00 3,8 C 4,4 C 98 % 1014,3 hPa 0,0 l/m 6,3 km/h (2 Bft) O-NO 0,00 h 0,000 mm 0,0 UV-I 0 W/m 3,5 C 3,0 C 8,6 km/h (2 Bft) 96,23 %
07.01.2018 04:00 3,6 C 4,4 C 98 % 1014,7 hPa 0,0 l/m 7,1 km/h (2 Bft) O-NO 0,00 h 0,000 mm 0,0 UV-I 0 W/m 3,3 C 2,5 C 10,8 km/h (2 Bft) 96,88 %
07.01.2018 05:00 3,4 C 4,4 C 98 % 1015,2 hPa 0,0 l/m 7,7 km/h (2 Bft) O-NO 0,00 h 0,000 mm 0,0 UV-I 0 W/m 3,1 C 2,1 C 11,0 km/h (2 Bft) 97,17 %
07.01.2018 06:00 3,3 C 4,4 C 98 % 1016,0 hPa 0,0 l/m 9,2 km/h (2 Bft) O-NO 0,00 h 0,000 mm 0,0 UV-I 0 W/m 3,1 C 1,0 C 12,9 km/h (3 Bft) 96,23 %
07.01.2018 07:00 3,4 C 4,4 C 98 % 1016,9 hPa 0,2 l/m 8,4 km/h (2 Bft) O-NO 0,00 h 0,000 mm 0,0 UV-I 5 W/m 3,1 C 1,6 C 11,8 km/h (2 Bft) 98,62 %
07.01.2018 08:00 3,4 C 4,4 C 98 % 1018,1 hPa 0,0 l/m 4,7 km/h (1 Bft) N-NO 0,00 h 0,000 mm 0,0 UV-I 13 W/m 3,1 C 3,3 C 6,9 km/h (2 Bft) 96,23 %
07.01.2018 09:00 3,4 C 4,4 C 98 % 1018,4 hPa 0,0 l/m 8,7 km/h (2 Bft) NO 0,00 h 0,000 mm 0,0 UV-I 45 W/m 3,1 C 1,3 C 12,4 km/h (3 Bft) 97,75 %
07.01.2018 10:00 3,6 C 4,4 C 98 % 1019,0 hPa 0,0 l/m 8,0 km/h (2 Bft) O-NO 0,00 h 0,025 mm 0,0 UV-I 48 W/m 3,3 C 2,1 C 11,3 km/h (2 Bft) 96,23 %
07.01.2018 11:00 4,4 C 4,4 C 98 % 1019,2 hPa 0,0 l/m 9,0 km/h (2 Bft) NO 0,00 h 0,025 mm 0,0 UV-I 108 W/m 4,1 C 2,3 C 13,0 km/h (3 Bft) 98,33 %
07.01.2018 12:00 5,4 C 4,4 C 96 % 1019,1 hPa 0,0 l/m 7,1 km/h (2 Bft) NO 0,00 h 0,051 mm 0,0 UV-I 70 W/m 4,8 C 4,3 C 10,4 km/h (2 Bft) 96,01 %
07.01.2018 13:00 6,1 C 4,4 C 93 % 1019,4 hPa 0,0 l/m 6,2 km/h (2 Bft) O-NO 0,00 h 0,025 mm 0,0 UV-I 76 W/m 5,1 C 5,1 C 9,4 km/h (2 Bft) 97,68 %
07.01.2018 14:00 6,7 C 4,4 C 93 % 1019,7 hPa 0,0 l/m 9,1 km/h (2 Bft) O-NO 0,00 h 0,025 mm 0,0 UV-I 47 W/m 5,7 C 4,7 C 13,1 km/h (3 Bft) 97,17 %
07.01.2018 15:00 7,2 C 4,4 C 93 % 1020,1 hPa 0,0 l/m 13,6 km/h (3 Bft) O-NO 0,00 h 0,025 mm 0,0 UV-I 37 W/m 6,1 C 2,5 C 18,3 km/h (3 Bft) 97,68 %
07.01.2018 16:00 7,3 C 4,4 C 93 % 1020,7 hPa 0,0 l/m 14,9 km/h (3 Bft) O-NO 0,00 h 0,025 mm 0,0 UV-I 8 W/m 6,2 C 2,1 C 20,3 km/h (4 Bft) 96,45 %
07.01.2018 17:00 7,4 C 4,4 C 92 % 1020,8 hPa 0,0 l/m 19,2 km/h (3 Bft) O-NO 0,00 h 0,025 mm 0,0 UV-I 0 W/m 6,2 C 0,3 C 25,8 km/h (4 Bft) 97,39 %
07.01.2018 18:00 7,4 C 4,4 C 92 % 1021,3 hPa 0,0 l/m 21,8 km/h (4 Bft) O-NO 0,00 h 0,025 mm 0,0 UV-I 0 W/m 6,1 C -0,7 C 28,7 km/h (4 Bft) 97,61 %
07.01.2018 19:00 7,3 C 4,4 C 92 % 1021,5 hPa 0,0 l/m 21,9 km/h (4 Bft) O-NO 0,00 h 0,025 mm 0,0 UV-I 0 W/m 6,0 C -0,9 C 29,2 km/h (5 Bft) 97,61 %
07.01.2018 20:00 7,0 C 4,4 C 92 % 1021,6 hPa 0,0 l/m 22,8 km/h (4 Bft) O-NO 0,00 h 0,025 mm 0,0 UV-I 0 W/m 5,7 C -1,4 C 30,6 km/h (5 Bft) 96,67 %
07.01.2018 21:00 6,4 C 4,4 C 93 % 1022,1 hPa 0,0 l/m 24,7 km/h (4 Bft) O-NO 0,00 h 0,025 mm 0,0 UV-I 0 W/m 5,3 C -2,9 C 32,6 km/h (5 Bft) 97,39 %
07.01.2018 22:00 6,0 C 4,4 C 93 % 1022,2 hPa 0,0 l/m 25,0 km/h (4 Bft) O-NO 0,00 h 0,025 mm 0,0 UV-I 0 W/m 4,9 C -3,5 C 32,7 km/h (5 Bft) 97,17 %
07.01.2018 23:00 5,7 C 4,4 C 94 % 1022,5 hPa 0,0 l/m 20,1 km/h (4 Bft) O-NO 0,00 h 0,025 mm 0,0 UV-I 0 W/m 4,8 C -2,3 C 26,6 km/h (4 Bft) 97,10 %
Min-Datum _ 03.01.18 01.01.18 01.01.18 03.01.18 - 01.01.18 - - - - - 03.01.18 02.01.18 01.01.18 01.01.18
_ Min-Zeit 03:24 00:01 13:54 11:18 - 00:02 - - - - - 03:14 00:05 00:02 00:02
Minimum _ -0,5 C 3,9 C 66 % 993,3 hPa - 0,0 km/h (0 Bft) - - - - - -1,2 C -9,0 C 0,0 km/h (0 Bft) 0,00 %
Max-Datum _ 05.01.18 06.01.18 04.01.18 07.01.18 04.01.18 03.01.18 - 01.01.18 02.01.18 05.01.18 02.01.18 05.01.18 05.01.18 03.01.18 01.01.18
_ Max-Zeit 14:38 13:42 22:56 23:22 23:02 15:39 - 10:53 12:00 11:46 12:31 01:05 14:39 23:04 00:04
Maximum _ 12,9 C 4,4 C 98 % 1022,6 hPa 5,6 l/m 41,8 km/h
SW (6 Bft)
- 0,02 h 0,152 mm 0,7 UV-I 450 W/m 9,3 C 12,9 C 69,2 km/h
W-SW (8 Bft)
100,00 %
Durchschnitt _ 5,3 C 4,0 C 88 % 1008,1 hPa #44,6 l/m 10,7 km/h (2 Bft) O-NO #14:52 h #5,169 mm 0,5 UV-I 85 W/m 3,3 C 2,1 C 15,3 km/h (3 Bft) 97,11 %